Time,TemperatureF,DewpointF,PressureIn,WindDirection,WindDirectionDegrees,WindSpeedMPH,WindSpeedGustMPH,Humidity,HourlyPrecipIn,Conditions,Clouds,dailyrainin,SoftwareType,DateUTC
2017-06-25 00:01:00,65.4,57.3,29.77,ENE,66,0.0,0.0,75,0.00,,---,0.00,VWS V15.00,2017-06-25 04:01:00,
2017-06-25 00:06:00,65.2,57.5,29.78,ENE,66,0.0,0.0,76,0.00,,---,0.00,VWS V15.00,2017-06-25 04:06:00,
2017-06-25 00:11:00,65.0,57.6,29.77,ENE,66,0.0,0.0,77,0.00,,---,0.00,VWS V15.00,2017-06-25 04:11:00,
2017-06-25 00:16:00,64.9,57.5,29.78,ENE,66,0.0,0.0,77,0.00,,---,0.00,VWS V15.00,2017-06-25 04:16:00,
2017-06-25 00:17:00,64.9,57.9,29.77,ENE,66,0.0,0.0,78,0.00,,---,0.00,VWS V15.00,2017-06-25 04:17:00,
2017-06-25 00:22:00,64.8,57.8,29.77,ENE,66,0.0,0.0,78,0.00,,---,0.00,VWS V15.00,2017-06-25 04:22:00,
2017-06-25 00:27:00,64.6,57.6,29.77,ENE,66,0.0,0.0,78,0.00,,---,0.00,VWS V15.00,2017-06-25 04:27:00,
2017-06-25 00:32:00,64.4,58.1,29.77,ENE,66,0.0,0.0,80,0.00,,---,0.00,VWS V15.00,2017-06-25 04:32:00,
2017-06-25 00:37:00,64.3,58.0,29.77,ENE,66,0.0,0.0,80,0.00,,---,0.00,VWS V15.00,2017-06-25 04:37:00,
2017-06-25 00:42:00,64.2,58.6,29.77,ENE,66,0.0,0.0,82,0.00,,---,0.00,VWS V15.00,2017-06-25 04:42:00,
2017-06-25 00:47:00,64.1,58.5,29.77,ENE,66,0.0,0.0,82,0.00,,---,0.00,VWS V15.00,2017-06-25 04:47:00,
2017-06-25 00:52:00,64.0,58.1,29.77,ENE,66,0.0,0.0,81,0.00,,---,0.00,VWS V15.00,2017-06-25 04:52:00,
2017-06-25 00:57:00,64.0,58.1,29.77,ENE,66,0.0,0.0,81,0.00,,---,0.00,VWS V15.00,2017-06-25 04:57:00,
2017-06-25 01:02:00,63.9,58.3,29.77,ENE,66,0.0,0.0,82,0.00,,---,0.00,VWS V15.00,2017-06-25 05:02:00,
2017-06-25 01:07:00,63.9,58.0,29.78,ENE,66,0.0,0.0,81,0.00,,---,0.00,VWS V15.00,2017-06-25 05:07:00,
2017-06-25 01:12:00,64.0,58.4,29.78,ENE,66,0.0,0.0,82,0.00,,---,0.00,VWS V15.00,2017-06-25 05:12:00,
2017-06-25 01:17:00,64.0,58.4,29.78,ENE,66,0.0,0.0,82,0.00,,---,0.00,VWS V15.00,2017-06-25 05:17:00,
2017-06-25 01:22:00,64.0,58.4,29.78,ENE,66,0.0,0.0,82,0.00,,---,0.00,VWS V15.00,2017-06-25 05:22:00,
2017-06-25 01:27:00,64.1,58.8,29.78,ENE,66,0.0,0.0,83,0.00,,---,0.00,VWS V15.00,2017-06-25 05:27:00,
2017-06-25 01:32:00,64.3,58.7,29.78,ENE,66,0.0,0.0,82,0.00,,---,0.00,VWS V15.00,2017-06-25 05:32:00,
2017-06-25 01:37:00,64.4,59.1,29.78,ENE,66,0.0,0.0,83,0.00,,---,0.00,VWS V15.00,2017-06-25 05:37:00,
2017-06-25 01:42:00,64.6,59.3,29.78,ENE,66,0.0,0.0,83,0.00,,---,0.00,VWS V15.00,2017-06-25 05:42:00,
2017-06-25 01:43:00,64.6,59.0,29.78,ENE,66,0.0,0.0,82,0.00,,---,0.00,VWS V15.00,2017-06-25 05:43:00,
2017-06-25 01:48:00,64.8,58.8,29.78,ENE,66,0.0,0.0,81,0.00,,---,0.00,VWS V15.00,2017-06-25 05:48:00,
2017-06-25 01:53:00,65.0,59.0,29.79,ENE,66,0.0,0.0,81,0.00,,---,0.00,VWS V15.00,2017-06-25 05:53:00,
2017-06-25 01:58:00,65.2,59.2,29.78,ENE,66,0.0,0.0,81,0.00,,---,0.00,VWS V15.00,2017-06-25 05:58:00,
2017-06-25 02:03:00,65.3,59.0,29.79,ENE,66,0.0,0.0,80,0.00,,---,0.00,VWS V15.00,2017-06-25 06:03:00,
2017-06-25 02:08:00,65.5,58.5,29.79,ENE,66,0.0,0.0,78,0.00,,---,0.00,VWS V15.00,2017-06-25 06:08:00,
2017-06-25 02:13:00,65.7,58.7,29.79,ENE,66,0.0,0.0,78,0.00,,---,0.00,VWS V15.00,2017-06-25 06:13:00,